Weather History for Lawrenceville, IL

Change the Weather History Date:

Monday, June 10, 2013

  Actual Average Record
Temperature  
Mean Temperature 70 °F 73 °F  
Max Temperature 77 °F 84 °F 98 °F (2011)
Min Temperature 63 °F 62 °F 55 °F (2007)
Degree Days  
Heating Degree Days 0 0  
Month to date heating degree days 3 6  
Since 1 June heating degree days 3 6  
Since 1 July heating degree days 4930 4679  
Cooling Degree Days 5 9  
Month to date cooling degree days 42 76  
Year to date cooling degree days 210 215  
Since 1 June cooling degree days 42 76  
Growing Degree Days 18 (Base 50)    
Moisture  
Dew Point 63 °F    
Average Humidity 77    
Maximum Humidity 93    
Minimum Humidity 60    
Precipitation  
Precipitation 0.07 in 0.14 in 1.63 in (2014)
Month to date precipitation 4.49 1.53  
Year to date precipitation 29.52 19.09  
Sea Level Pressure  
Sea Level Pressure 29.84 in    
Wind  
Wind Speed 8 mph (SW)    
Max Wind Speed 15 mph    
Max Gust Speed 18 mph    
Visibility 7 miles    
Events Rain    
T = Trace of Precipitation, MM = Missing Value Source: NWS Daily Summary

Daily Weather History Graph

Daily Weather History Graph

Search for Another Location

Airport:

Trip Planner

Search our weather history database for the weather conditions in past years. The results will help you decide how hot, cold, wet, or windy it might be!

Date:

Astronomy

Jun. 10, 2013 Rise Set
Actual Time 5:25 AM CDT 8:15 PM CDT
Civil Twilight 4:53 AM CDT 8:46 PM CDT
Nautical Twilight 4:13 AM CDT 9:26 PM CDT
Astronomical Twilight 3:27 AM CDT 10:12 PM CDT
Moon 7:12 AM CDT (6/10) 9:42 PM CDT (6/10)
Length of Visible Light 15h 53m
Length of Day
14h 49m
Waxing Crescent, 4% of the Moon is Illuminated
Jun 10
Waxing Crescent
Jun 16
First Quarter
Jun 23
Full
Jun 29
Last Quarter
Jul 8
New

Hourly Weather History & Observations

Time (CDT) Temp. Dew Point Humidity Pressure Visibility Wind Dir Wind Speed Gust Speed Precip Events Conditions
12:53 AM 66.9 °F 64.0 °F 90% 29.82 in 7.0 mi SSW 6.9 mph - N/A   Clear
1:15 AM 66.2 °F 64.4 °F 94% 29.82 in 6.0 mi SSW 5.8 mph - N/A   Mostly Cloudy
1:42 AM 66.2 °F 64.4 °F 94% 29.81 in 5.0 mi SW 4.6 mph - N/A   Scattered Clouds
1:53 AM 66.0 °F 64.0 °F 93% 29.81 in 5.0 mi WSW 3.5 mph - N/A   Partly Cloudy
2:35 AM 64.4 °F 62.6 °F 94% 29.81 in 5.0 mi West 8.1 mph - N/A   Mostly Cloudy
2:44 AM 64.4 °F 62.6 °F 94% 29.81 in 7.0 mi West 4.6 mph - N/A   Mostly Cloudy
2:53 AM 66.0 °F 64.0 °F 93% 29.81 in 7.0 mi Calm Calm - N/A   Overcast
3:10 AM 66.2 °F 62.6 °F 88% 29.81 in 6.0 mi WSW 8.1 mph - N/A   Overcast
3:53 AM 64.9 °F 63.0 °F 93% 29.79 in 5.0 mi SSW 6.9 mph - N/A   Mostly Cloudy
4:26 AM 64.4 °F 62.6 °F 94% 29.79 in 4.0 mi SW 4.6 mph - N/A   Scattered Clouds
4:53 AM 64.0 °F 62.1 °F 93% 29.81 in 4.0 mi West 4.6 mph - N/A   Mostly Cloudy
5:12 AM 62.6 °F 62.6 °F 100% 29.81 in 4.0 mi WSW 4.6 mph - N/A   Scattered Clouds
5:30 AM 62.6 °F 60.8 °F 94% 29.82 in 1.8 mi SW 3.5 mph - 0.01 in   Partly Cloudy
5:51 AM 62.6 °F 62.6 °F 100% 29.83 in 2.0 mi South 4.6 mph - 0.01 in   Clear
5:53 AM 63.0 °F 61.0 °F 93% 29.82 in 2.0 mi South 4.6 mph - 0.01 in   Clear
5:58 AM 62.6 °F 60.8 °F 94% 29.83 in 1.8 mi South 3.5 mph - N/A   Partly Cloudy
6:07 AM 64.4 °F 62.6 °F 94% 29.83 in 2.0 mi South 5.8 mph - N/A   Mostly Cloudy
6:44 AM 64.4 °F 62.6 °F 94% 29.84 in 3.0 mi SSW 6.9 mph - N/A   Overcast
6:53 AM 64.9 °F 63.0 °F 93% 29.83 in 4.0 mi SSW 8.1 mph - N/A   Overcast
7:15 AM 66.2 °F 62.6 °F 88% 29.84 in 4.0 mi SSW 6.9 mph - 0.00 in Rain Light Rain
7:53 AM 66.0 °F 63.0 °F 90% 29.84 in 5.0 mi SW 8.1 mph - 0.00 in Rain Light Rain
8:53 AM 66.9 °F 62.1 °F 84% 29.87 in 8.0 mi SW 10.4 mph - 0.01 in Rain Light Rain
9:53 AM 66.0 °F 63.0 °F 90% 29.85 in 4.0 mi South 9.2 mph - 0.05 in Rain Light Rain
10:53 AM 69.1 °F 64.0 °F 84% 29.85 in 8.0 mi SSW 8.1 mph - 0.00 in   Mostly Cloudy
11:23 AM 71.6 °F 64.4 °F 78% 29.86 in 10.0 mi WSW 11.5 mph - N/A   Mostly Cloudy
11:53 AM 71.1 °F 64.0 °F 78% 29.85 in 10.0 mi SW 11.5 mph - N/A   Mostly Cloudy
12:34 PM 73.4 °F 64.4 °F 73% 29.85 in 10.0 mi WSW 11.5 mph - N/A   Mostly Cloudy
12:53 PM 73.0 °F 63.0 °F 71% 29.84 in 10.0 mi SSW 13.8 mph - N/A   Mostly Cloudy
1:53 PM 75.0 °F 64.9 °F 71% 29.84 in 10.0 mi SSW 13.8 mph - N/A   Mostly Cloudy
2:53 PM 73.0 °F 63.0 °F 71% 29.83 in 10.0 mi SW 8.1 mph - N/A   Overcast
3:53 PM 73.0 °F 64.9 °F 76% 29.84 in 9.0 mi WSW 11.5 mph - 0.00 in Rain Light Rain
4:53 PM 75.0 °F 62.1 °F 64% 29.84 in 10.0 mi West 6.9 mph - 0.00 in   Mostly Cloudy
5:53 PM 75.9 °F 61.0 °F 60% 29.85 in 10.0 mi WNW 11.5 mph - N/A   Partly Cloudy
6:53 PM 75.9 °F 61.0 °F 60% 29.86 in 10.0 mi WNW 12.7 mph - N/A   Clear
7:53 PM 73.0 °F 62.1 °F 68% 29.87 in 10.0 mi West 5.8 mph - N/A   Clear
8:53 PM 70.0 °F 63.0 °F 78% 29.87 in 10.0 mi SW 5.8 mph - N/A   Clear
9:53 PM 68.0 °F 63.0 °F 84% 29.90 in 10.0 mi SW 3.5 mph - N/A   Clear
10:53 PM 69.1 °F 62.1 °F 78% 29.91 in 10.0 mi WSW 5.8 mph - N/A   Clear
11:53 PM 66.9 °F 62.1 °F 84% 29.92 in 10.0 mi WSW 5.8 mph - N/A   Clear